When you browse on this site, cookies collect data to enhance your experience and personalize the content and advertising you see.
Visit our Privacy Policy to learn more. By continuing to use the site, you agree to this use of cookies and data.
  • en France
  • Liste des pays
  • À 7 jours
  • Température de l'eau
  • Carte satellitaire
  • Carte météo
  • Widgets météo
  • user-avatar
    Se connecter

    Météo par heure à Abrest

    Ce jour, 26 Avril, Vendredi

    Heure Température Précipitation Vent Pression Humidité
    00:00 +5°C° 0 mm 2 m/s 730 mmHg 94%
    01:00 +5°C° 0 mm 2 m/s 730 mmHg 94%
    02:00 +5°C° 0 mm 2 m/s 731 mmHg 93%
    03:00 +4°C° 0 mm 2 m/s 731 mmHg 93%
    04:00 +5°C° 0 mm 2 m/s 731 mmHg 92%
    05:00 +5°C° 0 mm 2 m/s 731 mmHg 90%
    06:00 +5°C° 0 mm 3 m/s 731 mmHg 89%
    07:00 +8°C° 0 mm 3 m/s 732 mmHg 80%
    08:00 +10°C° 0 mm 4 m/s 732 mmHg 71%
    09:00 +12°C° 0 mm 5 m/s 732 mmHg 62%
    10:00 +12°C° 0.1 mm 5 m/s 733 mmHg 59%
    11:00 +13°C° 0.1 mm 4 m/s 733 mmHg 57%
    12:00 +14°C° 0.1 mm 4 m/s 733 mmHg 54%
    13:00 +14°C° 0.3 mm 4 m/s 733 mmHg 56%
    14:00 +14°C° 0.3 mm 4 m/s 733 mmHg 59%
    15:00 +14°C° 0.3 mm 4 m/s 733 mmHg 61%
    16:00 +13°C° 0.2 mm 3 m/s 733 mmHg 67%
    17:00 +12°C° 0.2 mm 3 m/s 734 mmHg 73%
    18:00 +12°C° 0.2 mm 2 m/s 734 mmHg 80%
    19:00 +12°C° 0.3 mm 2 m/s 735 mmHg 84%
    20:00 +10°C° 0.3 mm 3 m/s 736 mmHg 89%
    21:00 +9°C° 0.3 mm 3 m/s 737 mmHg 94%
    22:00 +8°C° 0.2 mm 3 m/s 737 mmHg 94%
    23:00 +7°C° 0.2 mm 3 m/s 737 mmHg 94%

    Demain, 27 Avril, Samedi

    Heure Température Précipitation Vent Pression Humidité
    00:00 +7°C° 0.2 mm 2 m/s 737 mmHg 94%
    01:00 +6°C° 0 mm 2 m/s 737 mmHg 94%
    02:00 +6°C° 0 mm 2 m/s 737 mmHg 93%
    03:00 +6°C° 0 mm 2 m/s 737 mmHg 92%
    04:00 +6°C° 0.1 mm 2 m/s 737 mmHg 92%
    05:00 +7°C° 0.1 mm 2 m/s 737 mmHg 91%
    06:00 +7°C° 0.1 mm 2 m/s 737 mmHg 90%
    07:00 +9°C° 0.2 mm 3 m/s 738 mmHg 86%
    08:00 +10°C° 0.2 mm 3 m/s 738 mmHg 82%
    09:00 +12°C° 0.2 mm 4 m/s 738 mmHg 78%
    10:00 +12°C° 0.2 mm 4 m/s 738 mmHg 78%
    11:00 +12°C° 0.2 mm 4 m/s 738 mmHg 79%
    12:00 +12°C° 0.2 mm 4 m/s 738 mmHg 79%
    13:00 +12°C° 0.1 mm 4 m/s 738 mmHg 75%
    14:00 +12°C° 0.1 mm 4 m/s 738 mmHg 70%
    15:00 +12°C° 0.1 mm 4 m/s 738 mmHg 66%
    16:00 +11°C° 0 mm 4 m/s 738 mmHg 68%
    17:00 +10°C° 0 mm 3 m/s 738 mmHg 69%
    18:00 +10°C° 0 mm 2 m/s 738 mmHg 71%
    19:00 +8°C° 0 mm 2 m/s 739 mmHg 77%
    20:00 +7°C° 0 mm 2 m/s 739 mmHg 83%
    21:00 +6°C° 0 mm 1 m/s 740 mmHg 89%
    22:00 +6°C° 0 mm 1 m/s 740 mmHg 91%
    23:00 +6°C° 0 mm 1 m/s 740 mmHg 92%

    Après-demain, 28 Avril, Dimanche

    Heure Température Précipitation Vent Pression Humidité
    00:00 +6°C° 0 mm 1 m/s 740 mmHg 94%
    01:00 +5°C° 0 mm 1 m/s 740 mmHg 94%
    02:00 +5°C° 0 mm 1 m/s 740 mmHg 94%
    03:00 +5°C° 0 mm 1 m/s 739 mmHg 95%
    04:00 +5°C° 0 mm 1 m/s 739 mmHg 93%
    05:00 +5°C° 0 mm 1 m/s 739 mmHg 92%
    06:00 +5°C° 0 mm 1 m/s 739 mmHg 91%
    07:00 +6°C° 0 mm 2 m/s 739 mmHg 82%
    08:00 +8°C° 0 mm 3 m/s 739 mmHg 73%
    09:00 +9°C° 0 mm 3 m/s 739 mmHg 65%
    10:00 +10°C° 0.1 mm 3 m/s 739 mmHg 62%
    11:00 +10°C° 0.1 mm 4 m/s 739 mmHg 60%
    12:00 +11°C° 0.1 mm 4 m/s 739 mmHg 58%
    13:00 +11°C° 0.1 mm 4 m/s 738 mmHg 59%
    14:00 +11°C° 0.1 mm 4 m/s 738 mmHg 60%
    15:00 +11°C° 0.1 mm 4 m/s 738 mmHg 61%
    16:00 +10°C° 0.1 mm 3 m/s 737 mmHg 67%
    17:00 +10°C° 0.1 mm 2 m/s 737 mmHg 74%
    18:00 +9°C° 0.1 mm 2 m/s 737 mmHg 80%
    19:00 +9°C° 0.1 mm 2 m/s 737 mmHg 84%
    20:00 +9°C° 0.1 mm 1 m/s 738 mmHg 88%
    21:00 +8°C° 0.1 mm 1 m/s 738 mmHg 92%
    22:00 +8°C° 0.1 mm 1 m/s 738 mmHg 93%
    23:00 +8°C° 0.1 mm 1 m/s 737 mmHg 95%

    29 Avril, Lundi

    Heure Température Précipitation Vent Pression Humidité
    00:00 +7°C° 0.1 mm 1 m/s 737 mmHg 96%
    01:00 +7°C° 0 mm 1 m/s 737 mmHg 96%
    02:00 +7°C° 0 mm 1 m/s 737 mmHg 97%
    03:00 +6°C° 0 mm 0 m/s 736 mmHg 97%
    04:00 +7°C° 0.1 mm 0 m/s 736 mmHg 96%
    05:00 +7°C° 0.1 mm 0 m/s 736 mmHg 96%
    06:00 +7°C° 0.1 mm 0 m/s 736 mmHg 95%
    07:00 +8°C° 0.3 mm 0 m/s 736 mmHg 94%
    08:00 +8°C° 0.3 mm 0 m/s 736 mmHg 92%
    09:00 +9°C° 0.3 mm 0 m/s 736 mmHg 90%
    10:00 +10°C° 0.2 mm 0 m/s 735 mmHg 87%
    11:00 +11°C° 0.2 mm 1 m/s 735 mmHg 83%
    12:00 +12°C° 0.2 mm 1 m/s 735 mmHg 80%
    13:00 +13°C° 0.3 mm 1 m/s 735 mmHg 77%
    14:00 +14°C° 0.3 mm 1 m/s 734 mmHg 74%
    15:00 +14°C° 0.3 mm 2 m/s 734 mmHg 71%
    16:00 +13°C° 0.4 mm 1 m/s 734 mmHg 78%
    17:00 +13°C° 0.4 mm 1 m/s 734 mmHg 84%
    18:00 +12°C° 0.4 mm 1 m/s 734 mmHg 91%
    19:00 +10°C° 0 mm 1 m/s 734 mmHg 92%
    20:00 +7°C° 0 mm 0 m/s 735 mmHg 94%
    21:00 +6°C° 0 mm 0 m/s 735 mmHg 95%
    22:00 +6°C° 0 mm 0 m/s 735 mmHg 95%
    23:00 +5°C° 0 mm 0 m/s 735 mmHg 95%

    30 Avril, Mardi

    Heure Température Précipitation Vent Pression Humidité
    00:00 +5°C° 0 mm 0 m/s 735 mmHg 95%
    01:00 +5°C° 0 mm 0 m/s 735 mmHg 96%
    02:00 +4°C° 0 mm 0 m/s 735 mmHg 96%
    03:00 +4°C° 0 mm 0 m/s 734 mmHg 96%
    04:00 +5°C° 0 mm 0 m/s 734 mmHg 95%
    05:00 +5°C° 0 mm 0 m/s 734 mmHg 94%
    06:00 +6°C° 0 mm 0 m/s 734 mmHg 94%
    07:00 +9°C° 0 mm 1 m/s 734 mmHg 84%
    08:00 +11°C° 0 mm 1 m/s 734 mmHg 75%
    09:00 +13°C° 0 mm 1 m/s 734 mmHg 66%
    10:00 +15°C° 0 mm 2 m/s 734 mmHg 58%
    11:00 +16°C° 0 mm 2 m/s 734 mmHg 50%
    12:00 +17°C° 0 mm 2 m/s 734 mmHg 42%
    13:00 +17°C° 0 mm 2 m/s 733 mmHg 42%
    14:00 +18°C° 0 mm 2 m/s 733 mmHg 41%
    15:00 +18°C° 0 mm 2 m/s 733 mmHg 41%
    16:00 +17°C° 0 mm 2 m/s 733 mmHg 47%
    17:00 +16°C° 0 mm 2 m/s 733 mmHg 53%
    18:00 +14°C° 0 mm 1 m/s 733 mmHg 59%
    19:00 +12°C° 0 mm 1 m/s 733 mmHg 65%
    20:00 +10°C° 0 mm 1 m/s 734 mmHg 71%
    21:00 +8°C° 0 mm 1 m/s 734 mmHg 77%
    22:00 +8°C° 0 mm 1 m/s 734 mmHg 80%
    23:00 +7°C° 0 mm 1 m/s 734 mmHg 83%

    1 Mai, Mercredi

    Heure Température Précipitation Vent Pression Humidité
    00:00 +7°C° 0 mm 1 m/s 733 mmHg 86%
    01:00 +6°C° 0 mm 1 m/s 733 mmHg 87%
    02:00 +6°C° 0 mm 1 m/s 733 mmHg 89%
    03:00 +6°C° 0 mm 1 m/s 733 mmHg 90%
    04:00 +7°C° 0 mm 1 m/s 733 mmHg 87%
    05:00 +8°C° 0 mm 1 m/s 733 mmHg 84%
    06:00 +8°C° 0 mm 1 m/s 733 mmHg 80%
    07:00 +11°C° 0 mm 1 m/s 733 mmHg 71%
    08:00 +14°C° 0 mm 1 m/s 732 mmHg 62%
    09:00 +18°C° 0 mm 1 m/s 732 mmHg 53%
    10:00 +20°C° 0 mm 1 m/s 732 mmHg 49%
    11:00 +21°C° 0 mm 1 m/s 732 mmHg 45%
    12:00 +23°C° 0 mm 1 m/s 732 mmHg 41%
    13:00 +22°C° 0 mm 1 m/s 731 mmHg 41%
    14:00 +22°C° 0 mm 1 m/s 731 mmHg 41%
    15:00 +22°C° 0 mm 1 m/s 730 mmHg 40%
    16:00 +21°C° 0 mm 1 m/s 730 mmHg 49%
    17:00 +19°C° 0 mm 1 m/s 730 mmHg 57%
    18:00 +18°C° 0 mm 1 m/s 730 mmHg 65%
    19:00 +15°C° 0 mm 1 m/s 730 mmHg 69%
    20:00 +13°C° 0 mm 1 m/s 730 mmHg 73%
    21:00 +10°C° 0 mm 0 m/s 730 mmHg 77%
    22:00 +11°C° 0 mm 1 m/s 730 mmHg 78%
    23:00 +11°C° 0 mm 1 m/s 730 mmHg 79%
    Voir plus